Year,Month,Day,Hour,Minute,Value (Times are PST for windspeed in km/hr)
2012,01,21,00,00,6.00
2012,01,21,00,01,2.10
2012,01,21,00,02,1.50
2012,01,21,00,03,2.50
2012,01,21,00,04,6.30
2012,01,21,00,05,5.60
2012,01,21,00,06,3.90
2012,01,21,00,07,7.30
2012,01,21,00,08,3.40
2012,01,21,00,09,3.00
2012,01,21,00,10,4.10
2012,01,21,00,11,4.50
2012,01,21,00,12,3.70
2012,01,21,00,13,1.90
2012,01,21,00,14,3.60
2012,01,21,00,15,0.20
2012,01,21,00,16,0.00
2012,01,21,00,17,0.00
2012,01,21,00,18,0.70
2012,01,21,00,19,0.40
2012,01,21,00,20,3.50
2012,01,21,00,21,1.60
2012,01,21,00,22,2.00
2012,01,21,00,23,2.00
2012,01,21,00,24,1.00
2012,01,21,00,25,0.10
2012,01,21,00,26,1.40
2012,01,21,00,27,0.10
2012,01,21,00,28,5.00
2012,01,21,00,29,2.70
2012,01,21,00,30,4.10
2012,01,21,00,31,1.00
2012,01,21,00,32,4.30
2012,01,21,00,33,6.80
2012,01,21,00,34,2.10
2012,01,21,00,35,2.60
2012,01,21,00,36,2.70
2012,01,21,00,37,1.20
2012,01,21,00,38,0.10
2012,01,21,00,39,2.10
2012,01,21,00,40,1.30
2012,01,21,00,41,1.40
2012,01,21,00,42,1.40
2012,01,21,00,43,4.00
2012,01,21,00,44,5.10
2012,01,21,00,45,3.00
2012,01,21,00,46,3.40
2012,01,21,00,47,6.80
2012,01,21,00,48,9.40
2012,01,21,00,49,6.80
2012,01,21,00,50,5.10
2012,01,21,00,51,8.90
2012,01,21,00,52,5.10
2012,01,21,00,53,6.80
2012,01,21,00,54,9.30
2012,01,21,00,55,7.80
2012,01,21,00,56,5.80
2012,01,21,00,57,1.40
2012,01,21,00,58,3.10
2012,01,21,00,59,2.90
2012,01,21,01,00,2.70
2012,01,21,01,01,8.10
2012,01,21,01,02,5.10
2012,01,21,01,03,2.70
2012,01,21,01,04,1.50
2012,01,21,01,05,5.20
2012,01,21,01,06,2.00
2012,01,21,01,07,3.40
2012,01,21,01,08,6.90
2012,01,21,01,09,4.80
2012,01,21,01,10,9.30
2012,01,21,01,11,4.90
2012,01,21,01,12,0.60
2012,01,21,01,13,1.90
2012,01,21,01,14,8.50
2012,01,21,01,15,5.80
2012,01,21,01,16,3.30
2012,01,21,01,17,5.20
2012,01,21,01,18,5.00
2012,01,21,01,19,5.30
2012,01,21,01,20,5.70
2012,01,21,01,21,1.70
2012,01,21,01,22,5.80
2012,01,21,01,23,10.80
2012,01,21,01,24,6.70
2012,01,21,01,25,3.60
2012,01,21,01,26,0.70
2012,01,21,01,27,6.90
2012,01,21,01,28,9.60
2012,01,21,01,29,9.00
2012,01,21,01,30,7.10
2012,01,21,01,31,3.90
2012,01,21,01,32,1.40
2012,01,21,01,33,2.20
2012,01,21,01,34,0.80
2012,01,21,01,35,4.00
2012,01,21,01,36,2.30
2012,01,21,01,37,4.40
2012,01,21,01,38,5.70
2012,01,21,01,39,5.10
2012,01,21,01,40,8.10
2012,01,21,01,41,9.70
2012,01,21,01,42,10.10
2012,01,21,01,43,10.20
2012,01,21,01,44,9.00
2012,01,21,01,45,4.10
2012,01,21,01,46,0.10
2012,01,21,01,47,5.80
2012,01,21,01,48,9.00
2012,01,21,01,49,3.10
2012,01,21,01,50,2.60
2012,01,21,01,51,7.40
2012,01,21,01,52,9.40
2012,01,21,01,53,2.20
2012,01,21,01,54,4.80
2012,01,21,01,55,1.10
2012,01,21,01,56,0.10
2012,01,21,01,57,0.80
2012,01,21,01,58,5.00
2012,01,21,01,59,3.30
2012,01,21,02,00,0.20
2012,01,21,02,01,0.10
2012,01,21,02,02,0.00
2012,01,21,02,03,0.20
2012,01,21,02,04,0.00
2012,01,21,02,05,0.00
2012,01,21,02,06,0.10
2012,01,21,02,07,0.00
2012,01,21,02,08,4.90
2012,01,21,02,09,0.80
2012,01,21,02,10,0.30
2012,01,21,02,11,0.00
2012,01,21,02,12,0.00
2012,01,21,02,13,0.00
2012,01,21,02,14,0.10
2012,01,21,02,15,0.00
2012,01,21,02,16,0.10
2012,01,21,02,17,0.10
2012,01,21,02,18,0.00
2012,01,21,02,19,0.00
2012,01,21,02,20,0.20
2012,01,21,02,21,0.00
2012,01,21,02,22,0.00
2012,01,21,02,23,0.00
2012,01,21,02,24,0.00
2012,01,21,02,25,0.00
2012,01,21,02,26,0.00
2012,01,21,02,27,0.00
2012,01,21,02,28,0.90
2012,01,21,02,29,0.00
2012,01,21,02,30,0.00
2012,01,21,02,31,0.00
2012,01,21,02,32,0.00
2012,01,21,02,33,0.00
2012,01,21,02,34,0.00
2012,01,21,02,35,1.10
2012,01,21,02,36,0.00
2012,01,21,02,37,0.00
2012,01,21,02,38,0.00
2012,01,21,02,39,1.20
2012,01,21,02,40,6.40
2012,01,21,02,41,5.70
2012,01,21,02,42,5.40
2012,01,21,02,43,3.90
2012,01,21,02,44,0.60
2012,01,21,02,45,2.10
2012,01,21,02,46,5.50
2012,01,21,02,47,8.00
2012,01,21,02,48,11.60
2012,01,21,02,49,16.80
2012,01,21,02,50,9.90
2012,01,21,02,51,17.70
2012,01,21,02,52,19.20
2012,01,21,02,53,16.50
2012,01,21,02,54,13.40
2012,01,21,02,55,17.10
2012,01,21,02,56,15.90
2012,01,21,02,57,22.80
2012,01,21,02,58,20.30
2012,01,21,02,59,20.80
2012,01,21,03,00,20.00
2012,01,21,03,01,15.90
2012,01,21,03,02,23.30
2012,01,21,03,03,26.40
2012,01,21,03,04,23.90
2012,01,21,03,05,17.40
2012,01,21,03,06,24.60
2012,01,21,03,07,24.00
2012,01,21,03,08,18.90
2012,01,21,03,09,18.00
2012,01,21,03,10,27.30
2012,01,21,03,11,23.50
2012,01,21,03,12,16.80
2012,01,21,03,13,16.30
2012,01,21,03,14,18.00
2012,01,21,03,15,19.40
2012,01,21,03,16,20.20
2012,01,21,03,17,16.30
2012,01,21,03,18,15.90
2012,01,21,03,19,22.20
2012,01,21,03,20,20.30
2012,01,21,03,21,13.60
2012,01,21,03,22,13.80
2012,01,21,03,23,21.20
2012,01,21,03,24,24.80
2012,01,21,03,25,27.80
2012,01,21,03,26,24.00
2012,01,21,03,27,26.10
2012,01,21,03,28,17.00
2012,01,21,03,29,20.50
2012,01,21,03,30,29.90
2012,01,21,03,31,25.90
2012,01,21,03,32,18.50
2012,01,21,03,33,20.20
2012,01,21,03,34,18.70
2012,01,21,03,35,19.40
2012,01,21,03,36,23.70
2012,01,21,03,37,16.20
2012,01,21,03,38,23.50
2012,01,21,03,39,28.00
2012,01,21,03,40,28.90
2012,01,21,03,41,26.90
2012,01,21,03,42,13.90
2012,01,21,03,43,17.70
2012,01,21,03,44,17.10
2012,01,21,03,45,24.60
2012,01,21,03,46,30.50
2012,01,21,03,47,24.10
2012,01,21,03,48,34.40
2012,01,21,03,49,23.70
2012,01,21,03,50,33.00
2012,01,21,03,51,21.60
2012,01,21,03,52,22.30
2012,01,21,03,53,23.90
2012,01,21,03,54,25.80
2012,01,21,03,55,21.20
2012,01,21,03,56,18.30
2012,01,21,03,57,23.40
2012,01,21,03,58,25.30
2012,01,21,03,59,21.60
2012,01,21,04,00,21.20
2012,01,21,04,01,21.70
2012,01,21,04,02,24.70
2012,01,21,04,03,20.40
2012,01,21,04,04,18.80
2012,01,21,04,05,19.80
2012,01,21,04,06,13.00
2012,01,21,04,07,17.10
2012,01,21,04,08,24.00
2012,01,21,04,09,29.70
2012,01,21,04,10,24.40
2012,01,21,04,11,22.20
2012,01,21,04,12,15.10
2012,01,21,04,13,21.50
2012,01,21,04,14,21.70
2012,01,21,04,15,21.50
2012,01,21,04,16,14.80
2012,01,21,04,17,30.10
2012,01,21,04,18,36.10
2012,01,21,04,19,24.80
2012,01,21,04,20,22.90
2012,01,21,04,21,26.90
2012,01,21,04,22,16.30
2012,01,21,04,23,24.60
2012,01,21,04,24,18.90
2012,01,21,04,25,24.50
2012,01,21,04,26,25.30
2012,01,21,04,27,21.70
2012,01,21,04,28,16.90
2012,01,21,04,29,16.70
2012,01,21,04,30,12.30
2012,01,21,04,31,21.50
2012,01,21,04,32,29.20
2012,01,21,04,33,24.60
2012,01,21,04,34,25.60
2012,01,21,04,35,28.80
2012,01,21,04,36,22.30
2012,01,21,04,37,20.80
2012,01,21,04,38,31.10
2012,01,21,04,39,29.90
2012,01,21,04,40,27.20
2012,01,21,04,41,21.20
2012,01,21,04,42,24.90
2012,01,21,04,43,16.70
2012,01,21,04,44,25.10
2012,01,21,04,45,22.40
2012,01,21,04,46,21.50
2012,01,21,04,47,25.30
2012,01,21,04,48,30.70
2012,01,21,04,49,20.60
2012,01,21,04,50,15.80
2012,01,21,04,51,18.90
2012,01,21,04,52,16.30
2012,01,21,04,53,20.60
2012,01,21,04,54,13.60
2012,01,21,04,55,20.80
2012,01,21,04,56,27.30
2012,01,21,04,57,14.40
2012,01,21,04,58,17.50
2012,01,21,04,59,22.10
2012,01,21,05,00,21.00
2012,01,21,05,01,19.10
2012,01,21,05,02,17.60
2012,01,21,05,03,24.00
2012,01,21,05,04,17.10
2012,01,21,05,05,23.40
2012,01,21,05,06,21.80
2012,01,21,05,07,17.50
2012,01,21,05,08,20.70
2012,01,21,05,09,19.80
2012,01,21,05,10,28.60
2012,01,21,05,11,24.00
2012,01,21,05,12,16.70
2012,01,21,05,13,23.00
2012,01,21,05,14,17.90
2012,01,21,05,15,27.80
2012,01,21,05,16,27.40
2012,01,21,05,17,23.20
2012,01,21,05,18,18.90
2012,01,21,05,19,22.90
2012,01,21,05,20,29.00
2012,01,21,05,21,23.70
2012,01,21,05,22,21.50
2012,01,21,05,23,23.90
2012,01,21,05,24,21.20
2012,01,21,05,25,24.80
2012,01,21,05,26,29.60
2012,01,21,05,27,21.90
2012,01,21,05,28,31.50
2012,01,21,05,29,29.90
2012,01,21,05,30,30.60
2012,01,21,05,31,31.10
2012,01,21,05,32,30.20
2012,01,21,05,33,26.00
2012,01,21,05,34,24.90
2012,01,21,05,35,34.70
2012,01,21,05,36,30.90
2012,01,21,05,37,32.60
2012,01,21,05,38,24.00
2012,01,21,05,39,26.90
2012,01,21,05,40,26.20
2012,01,21,05,41,27.90
2012,01,21,05,42,23.20
2012,01,21,05,43,21.40
2012,01,21,05,44,22.90
2012,01,21,05,45,22.00
2012,01,21,05,46,21.50
2012,01,21,05,47,28.50
2012,01,21,05,48,22.00
2012,01,21,05,49,24.20
2012,01,21,05,50,20.10
2012,01,21,05,51,26.60
2012,01,21,05,52,25.20
2012,01,21,05,53,18.30
2012,01,21,05,54,17.80
2012,01,21,05,55,24.20
2012,01,21,05,56,18.10
2012,01,21,05,57,25.10
2012,01,21,05,58,20.80
2012,01,21,05,59,24.90
2012,01,21,06,00,21.50
2012,01,21,06,01,22.90
2012,01,21,06,02,18.90
2012,01,21,06,03,22.50
2012,01,21,06,04,24.80
2012,01,21,06,05,26.40
2012,01,21,06,06,25.30
2012,01,21,06,07,21.40
2012,01,21,06,08,25.00
2012,01,21,06,09,24.00
2012,01,21,06,10,19.10
2012,01,21,06,11,30.90
2012,01,21,06,12,27.60
2012,01,21,06,13,29.70
2012,01,21,06,14,22.80
2012,01,21,06,15,26.50
2012,01,21,06,16,19.40
2012,01,21,06,17,22.50
2012,01,21,06,18,26.80
2012,01,21,06,19,19.10
2012,01,21,06,20,21.20
2012,01,21,06,21,20.70
2012,01,21,06,22,22.90
2012,01,21,06,23,28.80
2012,01,21,06,24,25.50
2012,01,21,06,25,25.20
2012,01,21,06,26,22.50
2012,01,21,06,27,25.10
2012,01,21,06,28,24.80
2012,01,21,06,29,20.60
2012,01,21,06,30,20.60
2012,01,21,06,31,20.50
2012,01,21,06,32,23.00
2012,01,21,06,33,19.50
2012,01,21,06,34,16.80
2012,01,21,06,35,26.60
2012,01,21,06,36,25.10
2012,01,21,06,37,20.50
2012,01,21,06,38,21.20
2012,01,21,06,39,19.20
2012,01,21,06,40,25.10
2012,01,21,06,41,28.10
2012,01,21,06,42,27.90
2012,01,21,06,43,21.60
2012,01,21,06,44,14.70
2012,01,21,06,45,15.30
2012,01,21,06,46,18.70
2012,01,21,06,47,18.80
2012,01,21,06,48,24.90
2012,01,21,06,49,13.40
2012,01,21,06,50,16.00
2012,01,21,06,51,18.20
2012,01,21,06,52,18.90
2012,01,21,06,53,15.80
2012,01,21,06,54,16.90
2012,01,21,06,55,18.60
2012,01,21,06,56,13.00
2012,01,21,06,57,16.10
2012,01,21,06,58,16.50
2012,01,21,06,59,18.80
2012,01,21,07,00,19.70
2012,01,21,07,01,14.00
2012,01,21,07,02,18.80
2012,01,21,07,03,15.90
2012,01,21,07,04,15.40
2012,01,21,07,05,21.60
2012,01,21,07,06,17.00
2012,01,21,07,07,12.00
2012,01,21,07,08,19.10
2012,01,21,07,09,15.00
2012,01,21,07,10,18.70
2012,01,21,07,11,15.50
2012,01,21,07,12,26.30
2012,01,21,07,13,19.60
2012,01,21,07,14,11.90
2012,01,21,07,15,19.10
2012,01,21,07,16,30.30
2012,01,21,07,17,24.00
2012,01,21,07,18,21.40
2012,01,21,07,19,21.20
2012,01,21,07,20,16.10
2012,01,21,07,21,10.90
2012,01,21,07,22,15.90
2012,01,21,07,23,21.40
2012,01,21,07,24,17.50
2012,01,21,07,25,17.40
2012,01,21,07,26,20.60
2012,01,21,07,27,18.10
2012,01,21,07,28,15.80
2012,01,21,07,29,24.00
2012,01,21,07,30,19.70
2012,01,21,07,31,16.90
2012,01,21,07,32,16.90
2012,01,21,07,33,13.10
2012,01,21,07,34,15.10
2012,01,21,07,35,11.70
2012,01,21,07,36,11.40
2012,01,21,07,37,16.80
2012,01,21,07,38,19.10
2012,01,21,07,39,16.10
2012,01,21,07,40,17.20
2012,01,21,07,41,16.30
2012,01,21,07,42,18.00
2012,01,21,07,43,19.80
2012,01,21,07,44,23.70
2012,01,21,07,45,16.30
2012,01,21,07,46,19.10
2012,01,21,07,47,19.70
2012,01,21,07,48,21.10
2012,01,21,07,49,20.50
2012,01,21,07,50,17.70
2012,01,21,07,51,12.90
2012,01,21,07,52,14.50
2012,01,21,07,53,14.70
2012,01,21,07,54,14.90
2012,01,21,07,55,12.50
2012,01,21,07,56,12.70
2012,01,21,07,57,18.10
2012,01,21,07,58,17.70
2012,01,21,07,59,18.70
2012,01,21,08,00,10.90
2012,01,21,08,01,6.40
2012,01,21,08,02,15.40
2012,01,21,08,03,19.60
2012,01,21,08,04,22.80
2012,01,21,08,05,18.60
2012,01,21,08,06,15.80
2012,01,21,08,07,11.20
2012,01,21,08,08,15.00
2012,01,21,08,09,10.30
2012,01,21,08,10,20.70
2012,01,21,08,11,20.00
2012,01,21,08,12,21.30
2012,01,21,08,13,16.40
2012,01,21,08,14,16.40
2012,01,21,08,15,19.60
2012,01,21,08,16,18.20
2012,01,21,08,17,26.30
2012,01,21,08,18,24.80
2012,01,21,08,19,27.50
2012,01,21,08,20,21.20
2012,01,21,08,21,22.40
2012,01,21,08,22,19.40
2012,01,21,08,23,22.00
2012,01,21,08,24,18.30
2012,01,21,08,25,17.40
2012,01,21,08,26,22.00
2012,01,21,08,27,23.10
2012,01,21,08,28,22.50
2012,01,21,08,29,21.20
2012,01,21,08,30,18.00
2012,01,21,08,31,17.90
2012,01,21,08,32,20.70
2012,01,21,08,33,16.30
2012,01,21,08,34,15.50
2012,01,21,08,35,15.20
2012,01,21,08,36,15.00
2012,01,21,08,37,12.00
2012,01,21,08,38,16.10
2012,01,21,08,39,16.80
2012,01,21,08,40,17.00
2012,01,21,08,41,10.00
2012,01,21,08,42,10.70
2012,01,21,08,43,11.70
2012,01,21,08,44,16.80
2012,01,21,08,45,16.20
2012,01,21,08,46,14.60
2012,01,21,08,47,10.10
2012,01,21,08,48,14.50
2012,01,21,08,49,14.40
2012,01,21,08,50,15.00
2012,01,21,08,51,10.70
2012,01,21,08,52,18.20
2012,01,21,08,53,15.70
2012,01,21,08,54,18.20
2012,01,21,08,55,15.50
2012,01,21,08,56,15.40
2012,01,21,08,57,17.50
2012,01,21,08,58,15.50
2012,01,21,08,59,16.00
2012,01,21,09,00,15.20
2012,01,21,09,01,18.30
2012,01,21,09,02,18.30
2012,01,21,09,03,14.30
2012,01,21,09,04,21.20
2012,01,21,09,05,27.00
2012,01,21,09,06,28.10
2012,01,21,09,07,24.60
2012,01,21,09,08,27.20
2012,01,21,09,09,20.00
2012,01,21,09,10,20.20
2012,01,21,09,11,18.30
2012,01,21,09,12,24.50
2012,01,21,09,13,15.90
2012,01,21,09,14,15.40
2012,01,21,09,15,20.80
2012,01,21,09,16,19.30
2012,01,21,09,17,19.60
2012,01,21,09,18,23.10
2012,01,21,09,19,18.90
2012,01,21,09,20,19.20
2012,01,21,09,21,13.60
2012,01,21,09,22,13.30
2012,01,21,09,23,12.60
2012,01,21,09,24,8.60
2012,01,21,09,25,7.30
2012,01,21,09,26,9.00
2012,01,21,09,27,12.40
2012,01,21,09,28,11.20
2012,01,21,09,29,12.30
2012,01,21,09,30,9.30
2012,01,21,09,31,12.20
2012,01,21,09,32,15.90
2012,01,21,09,33,13.60
2012,01,21,09,34,10.50
2012,01,21,09,35,12.10
2012,01,21,09,36,9.90
2012,01,21,09,37,10.60
2012,01,21,09,38,10.90
2012,01,21,09,39,13.10
2012,01,21,09,40,13.40
2012,01,21,09,41,12.90
2012,01,21,09,42,7.70
2012,01,21,09,43,9.70
2012,01,21,09,44,15.30
2012,01,21,09,45,6.50
2012,01,21,09,46,8.80
2012,01,21,09,47,12.40
2012,01,21,09,48,14.60
2012,01,21,09,49,11.20
2012,01,21,09,50,8.50
2012,01,21,09,51,9.60
2012,01,21,09,52,8.90
2012,01,21,09,53,12.70
2012,01,21,09,54,14.20
2012,01,21,09,55,10.60
2012,01,21,09,56,12.30
2012,01,21,09,57,14.80
2012,01,21,09,58,10.90
2012,01,21,09,59,16.10
2012,01,21,10,00,17.70
2012,01,21,10,01,12.80
2012,01,21,10,02,17.00
2012,01,21,10,03,11.80
2012,01,21,10,04,10.20
2012,01,21,10,05,12.80
2012,01,21,10,06,13.20
2012,01,21,10,07,20.90
2012,01,21,10,08,11.40
2012,01,21,10,09,22.50
2012,01,21,10,10,21.60
2012,01,21,10,11,18.80
2012,01,21,10,12,15.30
2012,01,21,10,13,16.20
2012,01,21,10,14,16.10
2012,01,21,10,15,16.70
2012,01,21,10,16,10.90
2012,01,21,10,17,11.50
2012,01,21,10,18,12.30
2012,01,21,10,19,12.60
2012,01,21,10,20,15.00
2012,01,21,10,21,21.20
2012,01,21,10,22,21.80
2012,01,21,10,23,17.60
2012,01,21,10,24,10.90
2012,01,21,10,25,17.40
2012,01,21,10,26,21.10
2012,01,21,10,27,19.60
2012,01,21,10,28,19.80
2012,01,21,10,29,15.90
2012,01,21,10,30,19.40
2012,01,21,10,31,23.00
2012,01,21,10,32,21.20
2012,01,21,10,33,19.30
2012,01,21,10,34,16.80
2012,01,21,10,35,20.40
2012,01,21,10,36,19.10
2012,01,21,10,37,16.60
2012,01,21,10,38,20.40
2012,01,21,10,39,20.50
2012,01,21,10,40,23.10
2012,01,21,10,41,17.50
2012,01,21,10,42,16.00
2012,01,21,10,43,14.30
2012,01,21,10,44,19.00
2012,01,21,10,45,17.90
2012,01,21,10,46,13.70
2012,01,21,10,47,17.50
2012,01,21,10,48,15.50
2012,01,21,10,49,15.90
2012,01,21,10,50,11.70
2012,01,21,10,51,10.40
2012,01,21,10,52,18.30
2012,01,21,10,53,17.10
2012,01,21,10,54,12.60
2012,01,21,10,55,14.90
2012,01,21,10,56,13.70
2012,01,21,10,57,10.10
2012,01,21,10,58,16.00
2012,01,21,10,59,12.00
2012,01,21,11,00,14.30
2012,01,21,11,01,14.30
2012,01,21,11,02,11.20
2012,01,21,11,03,15.80
2012,01,21,11,04,22.20
2012,01,21,11,05,14.70
2012,01,21,11,06,20.50
2012,01,21,11,07,21.40
2012,01,21,11,08,27.90
2012,01,21,11,09,22.00
2012,01,21,11,10,20.60
2012,01,21,11,11,20.00
2012,01,21,11,12,16.90
2012,01,21,11,13,11.10
2012,01,21,11,14,10.80
2012,01,21,11,15,13.80
2012,01,21,11,16,17.40
2012,01,21,11,17,24.80
2012,01,21,11,18,20.40
2012,01,21,11,19,21.80
2012,01,21,11,20,15.40
2012,01,21,11,21,12.20
2012,01,21,11,22,10.20
2012,01,21,11,23,9.80
2012,01,21,11,24,12.80
2012,01,21,11,25,15.70
2012,01,21,11,26,11.80
2012,01,21,11,27,16.40
2012,01,21,11,28,12.60
2012,01,21,11,29,10.90
2012,01,21,11,30,10.90
2012,01,21,11,31,8.20
2012,01,21,11,32,13.60
2012,01,21,11,33,17.80
2012,01,21,11,34,15.90
2012,01,21,11,35,15.60
2012,01,21,11,36,20.40
2012,01,21,11,37,15.80
2012,01,21,11,38,15.30
2012,01,21,11,39,15.60
2012,01,21,11,40,14.60
2012,01,21,11,41,10.70
2012,01,21,11,42,9.00
2012,01,21,11,43,11.90
2012,01,21,11,44,14.80
2012,01,21,11,45,16.80
2012,01,21,11,46,17.90
2012,01,21,11,47,18.10
2012,01,21,11,48,13.40
2012,01,21,11,49,16.70
2012,01,21,11,50,15.70
2012,01,21,11,51,18.20
2012,01,21,11,52,27.10
2012,01,21,11,53,15.20
2012,01,21,11,54,13.00
2012,01,21,11,55,15.40
2012,01,21,11,56,27.50
2012,01,21,11,57,23.00
2012,01,21,11,58,19.30
2012,01,21,11,59,24.20
2012,01,21,12,00,26.30
2012,01,21,12,01,21.50
2012,01,21,12,02,15.20
2012,01,21,12,03,14.20
2012,01,21,12,04,14.70
2012,01,21,12,05,17.20
2012,01,21,12,06,11.90
2012,01,21,12,07,14.70
2012,01,21,12,08,12.70
2012,01,21,12,09,14.70
2012,01,21,12,10,17.50
2012,01,21,12,11,21.50
2012,01,21,12,12,13.50
2012,01,21,12,13,18.80
2012,01,21,12,14,13.00
2012,01,21,12,15,17.30
2012,01,21,12,16,17.70
2012,01,21,12,17,18.30
2012,01,21,12,18,19.20
2012,01,21,12,19,24.10
2012,01,21,12,20,17.70
2012,01,21,12,21,22.10
2012,01,21,12,22,20.20
2012,01,21,12,23,18.90
2012,01,21,12,24,24.10
2012,01,21,12,25,15.30
2012,01,21,12,26,15.90
2012,01,21,12,27,17.20
2012,01,21,12,28,19.50
2012,01,21,12,29,24.90
2012,01,21,12,30,14.50
2012,01,21,12,31,28.00
2012,01,21,12,32,23.20
2012,01,21,12,33,12.60
2012,01,21,12,34,17.10
2012,01,21,12,35,16.20
2012,01,21,12,36,13.10
2012,01,21,12,37,14.40
2012,01,21,12,38,19.30
2012,01,21,12,39,20.20
2012,01,21,12,40,13.00
2012,01,21,12,41,23.70
2012,01,21,12,42,19.50
2012,01,21,12,43,20.60
2012,01,21,12,44,20.30
2012,01,21,12,45,14.60
2012,01,21,12,46,21.60
2012,01,21,12,47,23.50
2012,01,21,12,48,23.80
2012,01,21,12,49,20.20
2012,01,21,12,50,19.60
2012,01,21,12,51,27.70
2012,01,21,12,52,21.20
2012,01,21,12,53,23.30
2012,01,21,12,54,14.00
2012,01,21,12,55,27.10
2012,01,21,12,56,28.60
2012,01,21,12,57,26.30
2012,01,21,12,58,32.00
2012,01,21,12,59,22.70
2012,01,21,13,00,20.40
2012,01,21,13,01,20.30
2012,01,21,13,02,19.20
2012,01,21,13,03,33.20
2012,01,21,13,04,17.90
2012,01,21,13,05,21.50
2012,01,21,13,06,22.00
2012,01,21,13,07,17.10
2012,01,21,13,08,20.80
2012,01,21,13,09,28.30
2012,01,21,13,10,27.00
2012,01,21,13,11,19.10
2012,01,21,13,12,22.60
2012,01,21,13,13,15.70
2012,01,21,13,14,29.10
2012,01,21,13,15,26.30
2012,01,21,13,16,21.70
2012,01,21,13,17,20.60
2012,01,21,13,18,25.80
2012,01,21,13,19,25.80
2012,01,21,13,20,25.30
2012,01,21,13,21,29.00
2012,01,21,13,22,25.30
2012,01,21,13,23,25.20
2012,01,21,13,24,25.70
2012,01,21,13,25,22.50
2012,01,21,13,26,21.20
2012,01,21,13,27,23.80
2012,01,21,13,28,24.80
2012,01,21,13,29,22.10
2012,01,21,13,30,17.00
2012,01,21,13,31,21.70
2012,01,21,13,32,22.40
2012,01,21,13,33,24.40
2012,01,21,13,34,13.80
2012,01,21,13,35,13.70
2012,01,21,13,36,24.10
2012,01,21,13,37,21.40
2012,01,21,13,38,16.70
2012,01,21,13,39,23.00
2012,01,21,13,40,24.50
2012,01,21,13,41,22.10
2012,01,21,13,42,17.40
2012,01,21,13,43,25.00
2012,01,21,13,44,20.40
2012,01,21,13,45,16.20
2012,01,21,13,46,19.10
2012,01,21,13,47,18.60
2012,01,21,13,48,16.50
2012,01,21,13,49,19.10
2012,01,21,13,50,20.90
2012,01,21,13,51,21.90
2012,01,21,13,52,21.10
2012,01,21,13,53,22.00
2012,01,21,13,54,18.80
2012,01,21,13,55,20.80
2012,01,21,13,56,22.90
2012,01,21,13,57,23.30
2012,01,21,13,58,20.00
2012,01,21,13,59,17.50
2012,01,21,14,00,17.00
2012,01,21,14,01,16.30
2012,01,21,14,02,10.90
2012,01,21,14,03,20.40
2012,01,21,14,04,17.20
2012,01,21,14,05,23.50
2012,01,21,14,06,19.50
2012,01,21,14,07,17.40
2012,01,21,14,08,25.40
2012,01,21,14,09,22.90
2012,01,21,14,10,19.70
2012,01,21,14,11,17.90
2012,01,21,14,12,23.50
2012,01,21,14,13,18.10
2012,01,21,14,14,16.90
2012,01,21,14,15,13.00
2012,01,21,14,16,21.50
2012,01,21,14,17,17.90
2012,01,21,14,18,22.60
2012,01,21,14,19,24.20
2012,01,21,14,20,21.50
2012,01,21,14,21,21.60
2012,01,21,14,22,19.60
2012,01,21,14,23,21.60
2012,01,21,14,24,23.00
2012,01,21,14,25,22.00
2012,01,21,14,26,18.80
2012,01,21,14,27,27.80
2012,01,21,14,28,17.40
2012,01,21,14,29,20.20
2012,01,21,14,30,21.60
2012,01,21,14,31,23.50
2012,01,21,14,32,16.20
2012,01,21,14,33,16.70
2012,01,21,14,34,24.30
2012,01,21,14,35,18.60
2012,01,21,14,36,21.20
2012,01,21,14,37,20.80
2012,01,21,14,38,13.80
2012,01,21,14,39,17.30
2012,01,21,14,40,19.50
2012,01,21,14,41,18.00
2012,01,21,14,42,17.60
2012,01,21,14,43,17.20
2012,01,21,14,44,17.70
2012,01,21,14,45,22.00
2012,01,21,14,46,22.20
2012,01,21,14,47,17.70
2012,01,21,14,48,20.80
2012,01,21,14,49,16.90
2012,01,21,14,50,13.40
2012,01,21,14,51,16.70
2012,01,21,14,52,22.50
2012,01,21,14,53,19.20
2012,01,21,14,54,20.00
2012,01,21,14,55,17.30
2012,01,21,14,56,13.40
2012,01,21,14,57,10.50
2012,01,21,14,58,19.90
2012,01,21,14,59,25.10
2012,01,21,15,00,22.40
2012,01,21,15,01,20.50
2012,01,21,15,02,11.40
2012,01,21,15,03,13.70
2012,01,21,15,04,25.60
2012,01,21,15,05,23.30
2012,01,21,15,06,19.70
2012,01,21,15,07,19.60
2012,01,21,15,08,21.00
2012,01,21,15,09,23.30
2012,01,21,15,10,18.70
2012,01,21,15,11,19.00
2012,01,21,15,12,26.20
2012,01,21,15,13,21.30
2012,01,21,15,14,18.40
2012,01,21,15,15,15.80
2012,01,21,15,16,18.50
2012,01,21,15,17,25.70
2012,01,21,15,18,22.60
2012,01,21,15,19,17.50
2012,01,21,15,20,27.10
2012,01,21,15,21,19.50
2012,01,21,15,22,20.50
2012,01,21,15,23,19.10
2012,01,21,15,24,23.60
2012,01,21,15,25,31.10
2012,01,21,15,26,30.70
2012,01,21,15,27,28.80
2012,01,21,15,28,21.60
2012,01,21,15,29,26.60
2012,01,21,15,30,27.80
2012,01,21,15,31,16.70
2012,01,21,15,32,19.10
2012,01,21,15,33,19.90
2012,01,21,15,34,22.10
2012,01,21,15,35,26.70
2012,01,21,15,36,28.70
2012,01,21,15,37,23.60
2012,01,21,15,38,31.60
2012,01,21,15,39,25.30
2012,01,21,15,40,28.30
2012,01,21,15,41,29.10
2012,01,21,15,42,21.90
2012,01,21,15,43,18.00
2012,01,21,15,44,20.30
2012,01,21,15,45,20.50
2012,01,21,15,46,21.10
2012,01,21,15,47,26.20
2012,01,21,15,48,25.40
2012,01,21,15,49,20.40
2012,01,21,15,50,20.70
2012,01,21,15,51,21.70
2012,01,21,15,52,18.70
2012,01,21,15,53,17.70
2012,01,21,15,54,15.60
2012,01,21,15,55,14.00
2012,01,21,15,56,18.30
2012,01,21,15,57,15.10
2012,01,21,15,58,19.00
2012,01,21,15,59,17.10
2012,01,21,16,00,18.00
2012,01,21,16,01,18.70
2012,01,21,16,02,18.30
2012,01,21,16,03,20.70
2012,01,21,16,04,24.70
2012,01,21,16,05,21.00
2012,01,21,16,06,21.70
2012,01,21,16,07,23.00
2012,01,21,16,08,16.80
2012,01,21,16,09,12.30
2012,01,21,16,10,14.60
2012,01,21,16,11,16.20
2012,01,21,16,12,13.50
2012,01,21,16,13,17.10
2012,01,21,16,14,16.80
2012,01,21,16,15,13.40
2012,01,21,16,16,16.30
2012,01,21,16,17,16.60
2012,01,21,16,18,15.30
2012,01,21,16,19,14.50
2012,01,21,16,20,13.80
2012,01,21,16,21,11.70
2012,01,21,16,22,17.90
2012,01,21,16,23,16.20
2012,01,21,16,24,19.90
2012,01,21,16,25,16.80
2012,01,21,16,26,17.00
2012,01,21,16,27,16.40
2012,01,21,16,28,22.10
2012,01,21,16,29,19.60
2012,01,21,16,30,18.50
2012,01,21,16,31,14.60
2012,01,21,16,32,20.70
2012,01,21,16,33,16.80
2012,01,21,16,34,18.10
2012,01,21,16,35,19.20
2012,01,21,16,36,11.30
2012,01,21,16,37,14.70
2012,01,21,16,38,19.10
2012,01,21,16,39,15.60
2012,01,21,16,40,14.60
2012,01,21,16,41,14.60
2012,01,21,16,42,19.00
2012,01,21,16,43,21.90
2012,01,21,16,44,21.70
2012,01,21,16,45,18.80
2012,01,21,16,46,19.20
2012,01,21,16,47,18.60
2012,01,21,16,48,17.20
2012,01,21,16,49,18.30
2012,01,21,16,50,21.90
2012,01,21,16,51,20.00
2012,01,21,16,52,18.00
2012,01,21,16,53,16.20
2012,01,21,16,54,18.20
2012,01,21,16,55,18.20
2012,01,21,16,56,20.10
2012,01,21,16,57,17.00
2012,01,21,16,58,16.20
2012,01,21,16,59,17.20
2012,01,21,17,00,14.60
2012,01,21,17,01,17.10
2012,01,21,17,02,18.80
2012,01,21,17,03,22.50
2012,01,21,17,04,19.00
2012,01,21,17,05,15.40
2012,01,21,17,06,13.70
2012,01,21,17,07,14.50
2012,01,21,17,08,15.70
2012,01,21,17,09,18.10
2012,01,21,17,10,12.50
2012,01,21,17,11,14.00
2012,01,21,17,12,17.80
2012,01,21,17,13,13.30
2012,01,21,17,14,16.00
2012,01,21,17,15,17.60
2012,01,21,17,16,19.50
2012,01,21,17,17,16.60
2012,01,21,17,18,12.70
2012,01,21,17,19,18.90
2012,01,21,17,20,20.30
2012,01,21,17,21,12.50
2012,01,21,17,22,17.10
2012,01,21,17,23,16.00
2012,01,21,17,24,13.80
2012,01,21,17,25,15.40
2012,01,21,17,26,16.70
2012,01,21,17,27,19.10